,,,PA_Meas_PMT16A,,PR_Meas_QMR101_102,,RH_Meas_QMH101,,SR_Meas_QMS101,,TA_Meas_QMH101,,GenWind,,GenWind,
date,time,status,PA,status,PR,status,RH,status,SR,status,TA,status,DirAvg,status,SpdAvg,
2010-04-09, 00:00:04,VALID,1011.38,VALID,0,VALID,95.5812,VALID,0,VALID,25.1557,VALID,45,VALID,0,
2010-04-09, 00:01:04,VALID,1011.41,VALID,0,VALID,95.6041,VALID,0,VALID,25.1148,VALID,45,VALID,0,
2010-04-09, 00:02:04,VALID,1011.37,VALID,0,VALID,95.6422,VALID,0,VALID,25.1362,VALID,45,VALID,0,
2010-04-09, 00:03:04,VALID,1011.38,VALID,0,VALID,95.6346,VALID,0,VALID,25.1167,VALID,45,VALID,0,
2010-04-09, 00:04:04,VALID,1011.34,VALID,0,VALID,95.6727,VALID,0,VALID,25.0954,VALID,45,VALID,0,
2010-04-09, 00:05:04,VALID,1011.32,VALID,0,VALID,95.6803,VALID,0,VALID,25.0973,VALID,45,VALID,0,
2010-04-09, 00:06:04,VALID,1011.27,VALID,0,VALID,95.7032,VALID,0,VALID,25.0973,VALID,45,VALID,0,
2010-04-09, 00:07:04,VALID,1011.28,VALID,0,VALID,95.749,VALID,0,VALID,25.0778,VALID,45,VALID,0,
2010-04-09, 00:08:04,VALID,1011.21,VALID,0,VALID,95.7566,VALID,0,VALID,25.0778,VALID,45,VALID,0,
2010-04-09, 00:09:04,VALID,1011.17,VALID,0,VALID,95.7795,VALID,0,VALID,25.0778,VALID,45,VALID,0,
2010-04-09, 00:10:04,VALID,1011.18,VALID,0,VALID,95.7871,VALID,0,VALID,25.0369,VALID,45,VALID,0,
2010-04-09, 00:11:04,VALID,1011.2,VALID,0,VALID,95.81,VALID,0,VALID,25.0583,VALID,45,VALID,0,
2010-04-09, 00:12:04,VALID,1011.19,VALID,0,VALID,95.8252,VALID,0,VALID,25.0583,VALID,45,VALID,0,
2010-04-09, 00:13:04,VALID,1011.19,VALID,0,VALID,95.8557,VALID,0,VALID,25.0583,VALID,45,VALID,0,
2010-04-09, 00:14:04,VALID,1011.16,VALID,0,VALID,95.8405,VALID,0,VALID,25.0564,VALID,45,VALID,0,
2010-04-09, 00:15:04,VALID,1011.16,VALID,0,VALID,95.8557,VALID,0,VALID,25.0583,VALID,45,VALID,0,
2010-04-09, 00:16:04,VALID,1011.16,VALID,0,VALID,95.8557,VALID,0,VALID,25.0583,VALID,45,VALID,0,
2010-04-09, 00:17:04,VALID,1011.14,VALID,0,VALID,95.8405,VALID,0,VALID,25.0174,VALID,45,VALID,0,
2010-04-09, 00:18:04,VALID,1011.15,VALID,0,VALID,95.8557,VALID,0,VALID,25.0388,VALID,45,VALID,0,
2010-04-09, 00:19:04,VALID,1011.15,VALID,0,VALID,95.8481,VALID,0,VALID,25.0193,VALID,45,VALID,0,
2010-04-09, 00:20:04,VALID,1011.13,VALID,0,VALID,95.8786,VALID,0,VALID,24.9998,VALID,45,VALID,0,
2010-04-09, 00:21:04,VALID,1011.16,VALID,0,VALID,95.8557,VALID,0,VALID,24.9784,VALID,45,VALID,0,
2010-04-09, 00:22:04,VALID,1011.14,VALID,0,VALID,95.8633,VALID,0,VALID,24.9784,VALID,45,VALID,0,
2010-04-09, 00:23:04,VALID,1011.15,VALID,0,VALID,95.8786,VALID,0,VALID,24.9998,VALID,45,VALID,0.0792969,
2010-04-09, 00:24:04,VALID,1011.14,VALID,0,VALID,95.8786,VALID,0,VALID,24.9784,VALID,45,VALID,0.267969,
2010-04-09, 00:25:04,VALID,1011.14,VALID,0,VALID,95.9015,VALID,0,VALID,24.9998,VALID,45,VALID,0.0046875,
2010-04-09, 00:26:04,VALID,1011.13,VALID,0,VALID,95.9167,VALID,0,VALID,24.9998,VALID,45,VALID,0,
2010-04-09, 00:27:04,VALID,1011.11,VALID,0,VALID,95.9091,VALID,0,VALID,24.9979,VALID,45,VALID,0.0851562,
2010-04-09, 00:28:04,VALID,1011.08,VALID,0,VALID,95.9244,VALID,0,VALID,24.9998,VALID,45,VALID,0,
2010-04-09, 00:29:04,VALID,1011.05,VALID,0,VALID,95.9167,VALID,0,VALID,24.9998,VALID,45,VALID,0,
2010-04-09, 00:30:04,VALID,1011.04,VALID,0,VALID,95.9244,VALID,0,VALID,24.9803,VALID,45,VALID,0,
2010-04-09, 00:31:04,VALID,1011.02,VALID,0,VALID,95.932,VALID,0,VALID,24.9803,VALID,45,VALID,0,
2010-04-09, 00:32:04,VALID,1011.02,VALID,0,VALID,95.9396,VALID,0,VALID,24.9608,VALID,45,VALID,0,
2010-04-09, 00:33:04,VALID,1010.98,VALID,0,VALID,95.9396,VALID,0,VALID,24.9608,VALID,45,VALID,0,
2010-04-09, 00:34:04,VALID,1010.95,VALID,0,VALID,95.9396,VALID,0,VALID,24.9803,VALID,45,VALID,0,
2010-04-09, 00:35:04,VALID,1010.92,VALID,0,VALID,95.9625,VALID,0,VALID,24.9822,VALID,45,VALID,0,
2010-04-09, 00:36:04,VALID,1010.92,VALID,0,VALID,95.9625,VALID,0,VALID,24.9822,VALID,45,VALID,0,
2010-04-09, 00:37:04,VALID,1010.93,VALID,0,VALID,95.9625,VALID,0,VALID,24.9822,VALID,45,VALID,0,
2010-04-09, 00:38:04,VALID,1010.93,VALID,0,VALID,95.9701,VALID,0,VALID,24.9803,VALID,45,VALID,0,
2010-04-09, 00:39:04,VALID,1010.92,VALID,0,VALID,95.9777,VALID,0,VALID,24.9822,VALID,45,VALID,0,
2010-04-09, 00:40:04,VALID,1010.9,VALID,0,VALID,95.9701,VALID,0,VALID,24.9608,VALID,45,VALID,0.0582031,
2010-04-09, 00:41:04,VALID,1010.89,VALID,0,VALID,95.9777,VALID,0,VALID,24.9627,VALID,45,VALID,0.282031,
2010-04-09, 00:42:04,VALID,1010.88,VALID,0,VALID,96.0082,VALID,0,VALID,24.9608,VALID,45,VALID,0.0457031,
2010-04-09, 00:43:04,VALID,1010.87,VALID,0,VALID,95.9854,VALID,0,VALID,24.9413,VALID,45,VALID,0,
2010-04-09, 00:44:04,VALID,1010.87,VALID,0,VALID,96.0006,VALID,0,VALID,24.9413,VALID,45,VALID,0,
2010-04-09, 00:45:04,VALID,1010.86,VALID,0,VALID,95.993,VALID,0.105969,VALID,24.9199,VALID,45,VALID,0,
2010-04-09, 00:46:04,VALID,1010.86,VALID,0,VALID,96.0006,VALID,0,VALID,24.9004,VALID,45,VALID,0,
2010-04-09, 00:47:04,VALID,1010.82,VALID,0,VALID,95.993,VALID,0.105969,VALID,24.9199,VALID,45,VALID,0,
2010-04-09, 00:48:04,VALID,1010.79,VALID,0,VALID,96.0006,VALID,0.105969,VALID,24.9199,VALID,45,VALID,0,
2010-04-09, 00:49:04,VALID,1010.8,VALID,0,VALID,96.0159,VALID,0.105969,VALID,24.9004,VALID,44,VALID,0,
2010-04-09, 00:50:04,VALID,1010.78,VALID,0,VALID,96.0235,VALID,0,VALID,24.9004,VALID,18,VALID,0,
2010-04-09, 00:51:04,VALID,1010.73,VALID,0,VALID,96.0235,VALID,0.105969,VALID,24.8809,VALID,357,VALID,0,
2010-04-09, 00:52:04,VALID,1010.69,VALID,0,VALID,96.0387,VALID,0.105969,VALID,24.9004,VALID,353,VALID,0,
2010-04-09, 00:53:04,VALID,1010.69,VALID,0,VALID,96.0387,VALID,0.105969,VALID,24.9004,VALID,353,VALID,0,
2010-04-09, 00:54:04,VALID,1010.67,VALID,0,VALID,96.0311,VALID,0,VALID,24.8809,VALID,353,VALID,0,
2010-04-09, 00:55:04,VALID,1010.66,VALID,0,VALID,96.0311,VALID,0.105969,VALID,24.9004,VALID,353,VALID,0,
2010-04-09, 00:56:04,VALID,1010.66,VALID,0,VALID,96.0387,VALID,0.105969,VALID,24.9004,VALID,353,VALID,0,
2010-04-09, 00:57:04,VALID,1010.61,VALID,0,VALID,96.0464,VALID,0.105969,VALID,24.9004,VALID,353,VALID,0,
2010-04-09, 00:58:04,VALID,1010.59,VALID,0,VALID,96.0464,VALID,0.105969,VALID,24.8809,VALID,353,VALID,0,
2010-04-09, 00:59:04,VALID,1010.56,VALID,0,VALID,96.0464,VALID,0.105969,VALID,24.8809,VALID,353,VALID,0,
2010-04-09, 01:00:04,VALID,1010.53,VALID,0,VALID,96.0387,VALID,0.105969,VALID,24.8615,VALID,353,VALID,0,
2010-04-09, 01:01:04,VALID,1010.49,VALID,0,VALID,96.0311,VALID,0.105969,VALID,24.842,VALID,353,VALID,0,
2010-04-09, 01:02:04,VALID,1010.5,VALID,0,VALID,96.0464,VALID,0,VALID,24.8438,VALID,353,VALID,0,
2010-04-09, 01:03:04,VALID,1010.47,VALID,0,VALID,96.0311,VALID,0,VALID,24.803,VALID,353,VALID,0,
2010-04-09, 01:04:04,VALID,1010.49,VALID,0,VALID,96.0387,VALID,0.105969,VALID,24.803,VALID,353,VALID,0,
2010-04-09, 01:05:04,VALID,1010.44,VALID,0,VALID,96.0616,VALID,0.105969,VALID,24.7835,VALID,353,VALID,0,
2010-04-09, 01:06:04,VALID,1010.46,VALID,0,VALID,96.0692,VALID,0.105969,VALID,24.8049,VALID,353,VALID,0,
2010-04-09, 01:07:04,VALID,1010.44,VALID,0,VALID,96.0845,VALID,0.105969,VALID,24.7835,VALID,353,VALID,0,
2010-04-09, 01:08:04,VALID,1010.43,VALID,0,VALID,96.0692,VALID,0.105969,VALID,24.7835,VALID,353,VALID,0,
2010-04-09, 01:09:04,VALID,1010.44,VALID,0,VALID,96.0845,VALID,0.105969,VALID,24.7835,VALID,358,VALID,0,
2010-04-09, 01:10:04,VALID,1010.45,VALID,0,VALID,96.0921,VALID,0.105969,VALID,24.764,VALID,358,VALID,0,
2010-04-09, 01:11:04,VALID,1010.48,VALID,0,VALID,96.0845,VALID,0.105969,VALID,24.764,VALID,358,VALID,0,
2010-04-09, 01:12:04,VALID,1010.47,VALID,0,VALID,96.1226,VALID,0,VALID,24.764,VALID,358,VALID,0,
2010-04-09, 01:13:04,VALID,1010.48,VALID,0,VALID,96.115,VALID,0.105969,VALID,24.7445,VALID,358,VALID,0,
2010-04-09, 01:14:04,VALID,1010.48,VALID,0,VALID,96.0845,VALID,0.105969,VALID,24.725,VALID,358,VALID,0,
2010-04-09, 01:15:04,VALID,1010.47,VALID,0,VALID,96.1379,VALID,0.105969,VALID,24.7055,VALID,358,VALID,0,
2010-04-09, 01:16:04,VALID,1010.48,VALID,0,VALID,96.1379,VALID,0.105969,VALID,24.686,VALID,358,VALID,0,
2010-04-09, 01:17:04,VALID,1010.47,VALID,0,VALID,96.0311,VALID,0.105969,VALID,24.686,VALID,39,VALID,0,
2010-04-09, 01:18:04,VALID,1010.48,VALID,0,VALID,96.0387,VALID,0.105969,VALID,24.686,VALID,66,VALID,0,
2010-04-09, 01:19:04,VALID,1010.49,VALID,0,VALID,96.0387,VALID,0.105969,VALID,24.7074,VALID,66,VALID,0,
2010-04-09, 01:20:04,VALID,1010.47,VALID,0,VALID,96.0387,VALID,0.105969,VALID,24.6666,VALID,66,VALID,0,
2010-04-09, 01:21:04,VALID,1010.48,VALID,0,VALID,96.0616,VALID,0.105969,VALID,24.686,VALID,66,VALID,0,
2010-04-09, 01:22:04,VALID,1010.46,VALID,0,VALID,96.0616,VALID,0.105969,VALID,24.6666,VALID,66,VALID,0,
2010-04-09, 01:23:04,VALID,1010.45,VALID,0,VALID,96.0616,VALID,0,VALID,24.6666,VALID,66,VALID,0,
2010-04-09, 01:24:04,VALID,1010.45,VALID,0,VALID,96.0616,VALID,0,VALID,24.6879,VALID,34,VALID,0.137109,
2010-04-09, 01:25:04,VALID,1010.42,VALID,0,VALID,96.0692,VALID,0.105969,VALID,24.6666,VALID,34,VALID,0,
2010-04-09, 01:26:04,VALID,1010.41,VALID,0,VALID,96.0692,VALID,0.105969,VALID,24.6879,VALID,34,VALID,0,
2010-04-09, 01:27:04,VALID,1010.38,VALID,0,VALID,96.0769,VALID,0.105969,VALID,24.6666,VALID,34,VALID,0,
2010-04-09, 01:28:04,VALID,1010.38,VALID,0,VALID,96.1074,VALID,0.105969,VALID,24.6471,VALID,34,VALID,0,
2010-04-09, 01:29:04,VALID,1010.34,VALID,0,VALID,96.1074,VALID,0.105969,VALID,24.6684,VALID,34,VALID,0,
2010-04-09, 01:30:04,VALID,1010.32,VALID,0,VALID,96.0997,VALID,0.105969,VALID,24.6471,VALID,34,VALID,0,
2010-04-09, 01:31:04,VALID,1010.29,VALID,0,VALID,96.0769,VALID,0.105969,VALID,24.6276,VALID,34,VALID,0,
2010-04-09, 01:32:04,VALID,1010.28,VALID,0,VALID,96.0921,VALID,0.105969,VALID,24.6081,VALID,34,VALID,0,
2010-04-09, 01:33:04,VALID,1010.29,VALID,0,VALID,96.1074,VALID,0.105969,VALID,24.6276,VALID,34,VALID,0,
2010-04-09, 01:34:04,VALID,1010.27,VALID,0,VALID,96.0997,VALID,0,VALID,24.6081,VALID,34,VALID,0,
2010-04-09, 01:35:04,VALID,1010.29,VALID,0,VALID,96.1226,VALID,0.105969,VALID,24.5886,VALID,2,VALID,0.191406,
2010-04-09, 01:36:04,VALID,1010.26,VALID,0,VALID,96.1074,VALID,0,VALID,24.6081,VALID,2,VALID,0,
2010-04-09, 01:37:04,VALID,1010.26,VALID,0,VALID,96.1379,VALID,0.105969,VALID,24.6081,VALID,2,VALID,0,
2010-04-09, 01:38:04,VALID,1010.25,VALID,0,VALID,96.1379,VALID,0.105969,VALID,24.5886,VALID,2,VALID,0,
2010-04-09, 01:39:04,VALID,1010.25,VALID,0,VALID,96.1455,VALID,0.105969,VALID,24.5886,VALID,18,VALID,0,
2010-04-09, 01:40:04,VALID,1010.25,VALID,0,VALID,96.1226,VALID,0.105969,VALID,24.5886,VALID,17,VALID,0,
2010-04-09, 01:41:04,VALID,1010.26,VALID,0,VALID,96.1226,VALID,0.105969,VALID,24.5886,VALID,16,VALID,0,
2010-04-09, 01:42:04,VALID,1010.24,VALID,0,VALID,96.1455,VALID,0.105969,VALID,24.5691,VALID,16,VALID,0,
2010-04-09, 01:43:04,VALID,1010.23,VALID,0,VALID,96.1379,VALID,0.105969,VALID,24.5691,VALID,16,VALID,0,
2010-04-09, 01:44:04,VALID,1010.21,VALID,0,VALID,96.1455,VALID,0.105969,VALID,24.5496,VALID,16,VALID,0,
2010-04-09, 01:45:04,VALID,1010.24,VALID,0,VALID,96.1379,VALID,0,VALID,24.532,VALID,16,VALID,0,
2010-04-09, 01:46:04,VALID,1010.21,VALID,0,VALID,96.1226,VALID,0,VALID,24.5533,VALID,16,VALID,0,
2010-04-09, 01:47:04,VALID,1010.23,VALID,0,VALID,96.1455,VALID,0,VALID,24.5125,VALID,16,VALID,0,
2010-04-09, 01:48:04,VALID,1010.18,VALID,0,VALID,96.1455,VALID,0,VALID,24.493,VALID,16,VALID,0,
2010-04-09, 01:49:04,VALID,1010.19,VALID,0,VALID,96.1302,VALID,0,VALID,24.4735,VALID,16,VALID,0,
2010-04-09, 01:50:04,VALID,1010.2,VALID,0,VALID,96.1455,VALID,0,VALID,24.454,VALID,16,VALID,0,
2010-04-09, 01:51:04,VALID,1010.2,VALID,0,VALID,96.1455,VALID,0,VALID,24.4754,VALID,16,VALID,0,
2010-04-09, 01:52:04,VALID,1010.2,VALID,0,VALID,96.1379,VALID,0,VALID,24.415,VALID,16,VALID,0,
2010-04-09, 01:53:04,VALID,1010.21,VALID,0,VALID,96.176,VALID,0,VALID,24.3956,VALID,16,VALID,0,
2010-04-09, 01:54:04,VALID,1010.21,VALID,0,VALID,96.1608,VALID,0,VALID,24.3761,VALID,16,VALID,0,
2010-04-09, 01:55:04,VALID,1010.23,VALID,0,VALID,96.1608,VALID,0,VALID,24.3761,VALID,16,VALID,0,
2010-04-09, 01:56:04,VALID,1010.25,VALID,0,VALID,96.1684,VALID,0,VALID,24.3761,VALID,16,VALID,0,
2010-04-09, 01:57:04,VALID,1010.22,VALID,0,VALID,96.1608,VALID,0,VALID,24.3566,VALID,16,VALID,0,
2010-04-09, 01:58:04,VALID,1010.24,VALID,0,VALID,96.1836,VALID,0,VALID,24.3371,VALID,16,VALID,0,
2010-04-09, 01:59:04,VALID,1010.22,VALID,0,VALID,96.1684,VALID,0,VALID,24.3371,VALID,16,VALID,0,
2010-04-09, 02:00:04,VALID,1010.19,VALID,0,VALID,96.1836,VALID,0.105969,VALID,24.3158,VALID,16,VALID,0,
2010-04-09, 02:01:04,VALID,1010.2,VALID,0,VALID,96.1913,VALID,0.105969,VALID,24.2963,VALID,16,VALID,0,
2010-04-09, 02:02:04,VALID,1010.2,VALID,0,VALID,96.1913,VALID,0.105969,VALID,24.2768,VALID,19,VALID,0,
2010-04-09, 02:03:04,VALID,1010.19,VALID,0,VALID,96.2065,VALID,0.105969,VALID,24.2963,VALID,20,VALID,0,
2010-04-09, 02:04:04,VALID,1010.17,VALID,0,VALID,96.2141,VALID,0.105969,VALID,24.2963,VALID,20,VALID,0,
2010-04-09, 02:05:04,VALID,1010.15,VALID,0,VALID,96.2599,VALID,0.105969,VALID,24.2768,VALID,20,VALID,0,
2010-04-09, 02:06:04,VALID,1010.16,VALID,0,VALID,96.2599,VALID,0,VALID,24.2768,VALID,20,VALID,0.120703,
2010-04-09, 02:07:04,VALID,1010.15,VALID,0,VALID,96.2599,VALID,0.105969,VALID,24.2768,VALID,20,VALID,0.0304688,
2010-04-09, 02:08:04,VALID,1010.16,VALID,0,VALID,96.2828,VALID,0.105969,VALID,24.2573,VALID,20,VALID,0,
2010-04-09, 02:09:04,VALID,1010.17,VALID,0,VALID,96.298,VALID,0.105969,VALID,24.2573,VALID,20,VALID,0.09375,
2010-04-09, 02:10:04,VALID,1010.16,VALID,0,VALID,96.2751,VALID,0.105969,VALID,24.2573,VALID,28,VALID,0.065625,
2010-04-09, 02:11:04,VALID,1010.15,VALID,0,VALID,96.2675,VALID,0.105969,VALID,24.2768,VALID,28,VALID,0,
2010-04-09, 02:12:04,VALID,1010.14,VALID,0,VALID,96.2751,VALID,0.105969,VALID,24.2768,VALID,28,VALID,0,
2010-04-09, 02:13:04,VALID,1010.12,VALID,0,VALID,96.2904,VALID,0.105969,VALID,24.2963,VALID,28,VALID,0,
2010-04-09, 02:14:04,VALID,1010.09,VALID,0,VALID,96.2828,VALID,0.105969,VALID,24.2555,VALID,28,VALID,0,
2010-04-09, 02:15:04,VALID,1010.12,VALID,0,VALID,96.2904,VALID,0,VALID,24.2981,VALID,28,VALID,0,
2010-04-09, 02:16:04,VALID,1010.12,VALID,0,VALID,96.2904,VALID,0,VALID,24.2768,VALID,28,VALID,0,
2010-04-09, 02:17:04,VALID,1010.08,VALID,0,VALID,96.3056,VALID,0,VALID,24.2786,VALID,38,VALID,0,
2010-04-09, 02:18:04,VALID,1010.14,VALID,0,VALID,96.3056,VALID,0,VALID,24.2786,VALID,38,VALID,0,
2010-04-09, 02:19:04,VALID,1010.13,VALID,0,VALID,96.3056,VALID,0.105969,VALID,24.2768,VALID,38,VALID,0,
2010-04-09, 02:20:04,VALID,1010.14,VALID,0,VALID,96.3209,VALID,0,VALID,24.2573,VALID,38,VALID,0,
2010-04-09, 02:21:04,VALID,1010.16,VALID,0,VALID,96.3209,VALID,0,VALID,24.2786,VALID,350,VALID,0.174219,
2010-04-09, 02:22:04,VALID,1010.15,VALID,0,VALID,96.3056,VALID,0.105969,VALID,24.2573,VALID,358,VALID,0,
2010-04-09, 02:23:04,VALID,1010.12,VALID,0,VALID,96.3133,VALID,0,VALID,24.2573,VALID,358,VALID,0,
2010-04-09, 02:24:04,VALID,1010.07,VALID,0,VALID,96.3285,VALID,0.105969,VALID,24.2573,VALID,359,VALID,0,
2010-04-09, 02:25:04,VALID,1010.04,VALID,0,VALID,96.3209,VALID,0,VALID,24.2573,VALID,52,VALID,0,
2010-04-09, 02:26:04,VALID,1010.06,VALID,0,VALID,96.3285,VALID,0.105969,VALID,24.2378,VALID,52,VALID,0,
2010-04-09, 02:27:04,VALID,1010.03,VALID,0,VALID,96.3209,VALID,0,VALID,24.2378,VALID,52,VALID,0,
2010-04-09, 02:28:04,VALID,1010,VALID,0,VALID,96.3285,VALID,0,VALID,24.2183,VALID,52,VALID,0,
2010-04-09, 02:29:04,VALID,1009.99,VALID,0,VALID,96.3209,VALID,0.105969,VALID,24.2183,VALID,51,VALID,0,
2010-04-09, 02:30:04,VALID,1009.99,VALID,0,VALID,96.3209,VALID,0.105969,VALID,24.2183,VALID,51,VALID,0,
2010-04-09, 02:31:04,VALID,1009.94,VALID,0,VALID,96.3285,VALID,0,VALID,24.2183,VALID,51,VALID,0,
2010-04-09, 02:32:04,VALID,1009.93,VALID,0,VALID,96.3743,VALID,0.105969,VALID,24.1988,VALID,51,VALID,0,
2010-04-09, 02:33:04,VALID,1009.94,VALID,0,VALID,96.359,VALID,0,VALID,24.1988,VALID,51,VALID,0,
2010-04-09, 02:34:04,VALID,1009.9,VALID,0,VALID,96.3438,VALID,0.105969,VALID,24.1988,VALID,51,VALID,0,
2010-04-09, 02:35:04,VALID,1009.91,VALID,0,VALID,96.3666,VALID,0.105969,VALID,24.1793,VALID,51,VALID,0,
2010-04-09, 02:36:04,VALID,1009.91,VALID,0,VALID,96.3743,VALID,0.105969,VALID,24.1599,VALID,51,VALID,0,
2010-04-09, 02:37:04,VALID,1009.91,VALID,0,VALID,96.3666,VALID,0.105969,VALID,24.1404,VALID,51,VALID,0,
2010-04-09, 02:38:04,VALID,1009.9,VALID,0,VALID,96.3666,VALID,0.105969,VALID,24.1404,VALID,51,VALID,0,
2010-04-09, 02:39:04,VALID,1009.87,VALID,0,VALID,96.3743,VALID,0.105969,VALID,24.1404,VALID,51,VALID,0,
2010-04-09, 02:40:04,VALID,1009.84,VALID,0,VALID,96.3743,VALID,0.105969,VALID,24.1209,VALID,51,VALID,0,
2010-04-09, 02:41:04,VALID,1009.8,VALID,0,VALID,96.3743,VALID,0.105969,VALID,24.1617,VALID,51,VALID,0,
2010-04-09, 02:42:04,VALID,1009.79,VALID,0,VALID,96.3819,VALID,0.105969,VALID,24.1404,VALID,51,VALID,0,
2010-04-09, 02:43:04,VALID,1009.76,VALID,0,VALID,96.3666,VALID,0,VALID,24.1404,VALID,51,VALID,0,
2010-04-09, 02:44:04,VALID,1009.76,VALID,0,VALID,96.3514,VALID,0.105969,VALID,24.1209,VALID,51,VALID,0,
2010-04-09, 02:45:04,VALID,1009.71,VALID,0,VALID,96.3819,VALID,0,VALID,24.1227,VALID,51,VALID,0,
2010-04-09, 02:46:04,VALID,1009.69,VALID,0,VALID,96.3819,VALID,0,VALID,24.1032,VALID,51,VALID,0,
2010-04-09, 02:47:04,VALID,1009.68,VALID,0,VALID,96.3895,VALID,0,VALID,24.0837,VALID,51,VALID,0,
2010-04-09, 02:48:04,VALID,1009.67,VALID,0,VALID,96.3895,VALID,0,VALID,24.0837,VALID,51,VALID,0,
2010-04-09, 02:49:04,VALID,1009.68,VALID,0,VALID,96.3971,VALID,0,VALID,24.0643,VALID,51,VALID,0,
2010-04-09, 02:50:04,VALID,1009.67,VALID,0,VALID,96.3895,VALID,0,VALID,24.0448,VALID,51,VALID,0,
2010-04-09, 02:51:04,VALID,1009.67,VALID,0,VALID,96.3971,VALID,0,VALID,24.0253,VALID,51,VALID,0,
2010-04-09, 02:52:04,VALID,1009.67,VALID,0,VALID,96.3971,VALID,0,VALID,24.0253,VALID,51,VALID,0,
2010-04-09, 02:53:04,VALID,1009.66,VALID,0,VALID,96.3743,VALID,0,VALID,24.0058,VALID,51,VALID,0,
2010-04-09, 02:54:04,VALID,1009.67,VALID,0,VALID,96.3666,VALID,0,VALID,24.0271,VALID,51,VALID,0,
2010-04-09, 02:55:04,VALID,1009.63,VALID,0,VALID,96.359,VALID,0,VALID,24.0253,VALID,51,VALID,0,
2010-04-09, 02:56:04,VALID,1009.64,VALID,0,VALID,96.3666,VALID,0,VALID,24.0271,VALID,51,VALID,0,
2010-04-09, 02:57:04,VALID,1009.58,VALID,0,VALID,96.3895,VALID,0,VALID,23.9863,VALID,51,VALID,0,
2010-04-09, 02:58:04,VALID,1009.58,VALID,0,VALID,96.3666,VALID,0,VALID,23.9863,VALID,51,VALID,0,
2010-04-09, 02:59:04,VALID,1009.55,VALID,0,VALID,96.3666,VALID,0,VALID,23.9668,VALID,51,VALID,0,
2010-04-09, 03:00:04,VALID,1009.56,VALID,0,VALID,96.359,VALID,0,VALID,23.9863,VALID,51,VALID,0,
2010-04-09, 03:01:04,VALID,1009.57,VALID,0,VALID,96.3743,VALID,0.105969,VALID,23.965,VALID,51,VALID,0,
2010-04-09, 03:02:04,VALID,1009.58,VALID,0,VALID,96.3514,VALID,0,VALID,23.9845,VALID,51,VALID,0,
2010-04-09, 03:03:04,VALID,1009.58,VALID,0,VALID,96.3056,VALID,0.105969,VALID,24.0235,VALID,102,VALID,0.196484,
2010-04-09, 03:04:04,VALID,1009.59,VALID,0,VALID,96.3056,VALID,0.105969,VALID,24.0429,VALID,102,VALID,0.116016,
2010-04-09, 03:05:04,VALID,1009.58,VALID,0,VALID,96.1913,VALID,0.105969,VALID,24.1032,VALID,102,VALID,0.459375,
2010-04-09, 03:06:04,VALID,1009.58,VALID,0,VALID,96.1913,VALID,0,VALID,24.1014,VALID,102,VALID,0.426172,
2010-04-09, 03:07:04,VALID,1009.58,VALID,0,VALID,96.2141,VALID,0,VALID,24.1227,VALID,102,VALID,0.175781,
2010-04-09, 03:08:04,VALID,1009.57,VALID,0,VALID,96.2218,VALID,0,VALID,24.1014,VALID,102,VALID,0.470313,
2010-04-09, 03:09:04,VALID,1009.58,VALID,0,VALID,96.1836,VALID,0.105969,VALID,24.1227,VALID,96,VALID,0.285937,
2010-04-09, 03:10:04,VALID,1009.59,VALID,0,VALID,96.2065,VALID,0.105969,VALID,24.1014,VALID,96,VALID,0,
2010-04-09, 03:11:04,VALID,1009.6,VALID,0,VALID,96.2141,VALID,0,VALID,24.0819,VALID,96,VALID,0,
2010-04-09, 03:12:04,VALID,1009.61,VALID,0,VALID,96.2065,VALID,0,VALID,24.1014,VALID,96,VALID,0,
2010-04-09, 03:13:04,VALID,1009.62,VALID,0,VALID,96.2218,VALID,0.105969,VALID,24.1209,VALID,96,VALID,0,
2010-04-09, 03:14:04,VALID,1009.61,VALID,0,VALID,96.2141,VALID,0.105969,VALID,24.1014,VALID,96,VALID,0,
2010-04-09, 03:15:04,VALID,1009.65,VALID,0,VALID,96.2141,VALID,0,VALID,24.1032,VALID,96,VALID,0,
2010-04-09, 03:16:04,VALID,1009.63,VALID,0,VALID,96.2218,VALID,0,VALID,24.0837,VALID,98,VALID,0,
2010-04-09, 03:17:04,VALID,1009.61,VALID,0,VALID,96.2218,VALID,0,VALID,24.1051,VALID,114,VALID,0.573828,
2010-04-09, 03:18:04,VALID,1009.6,VALID,0,VALID,96.2446,VALID,0,VALID,24.0837,VALID,127,VALID,0.842578,
2010-04-09, 03:19:04,VALID,1009.64,VALID,0,VALID,96.2599,VALID,0,VALID,24.0448,VALID,137,VALID,0.708203,
2010-04-09, 03:20:04,VALID,1009.59,VALID,0,VALID,96.2599,VALID,0,VALID,24.0253,VALID,134,VALID,0.673437,
2010-04-09, 03:21:04,VALID,1009.59,VALID,0,VALID,96.298,VALID,0,VALID,24.0058,VALID,141,VALID,0.602734,
2010-04-09, 03:22:04,VALID,1009.59,VALID,0,VALID,96.2828,VALID,0,VALID,24.0253,VALID,140,VALID,0.4625,
2010-04-09, 03:23:04,VALID,1009.59,VALID,0,VALID,96.2523,VALID,0,VALID,24.0253,VALID,141,VALID,0.901563,
2010-04-09, 03:24:04,VALID,1009.6,VALID,0,VALID,96.237,VALID,0,VALID,24.0448,VALID,129,VALID,0.485156,
2010-04-09, 03:25:04,VALID,1009.62,VALID,0,VALID,96.2294,VALID,0,VALID,24.0448,VALID,134,VALID,0.820703,
2010-04-09, 03:26:04,VALID,1009.61,VALID,0,VALID,96.2446,VALID,0,VALID,24.0253,VALID,129,VALID,0.517969,
2010-04-09, 03:27:04,VALID,1009.61,VALID,0,VALID,96.2294,VALID,0,VALID,24.0253,VALID,129,VALID,0.559766,
2010-04-09, 03:28:04,VALID,1009.62,VALID,0,VALID,96.2141,VALID,0,VALID,24.0661,VALID,129,VALID,0.307813,
2010-04-09, 03:29:04,VALID,1009.61,VALID,0,VALID,96.2294,VALID,0,VALID,24.0448,VALID,129,VALID,0,
2010-04-09, 03:30:04,VALID,1009.6,VALID,0,VALID,96.2065,VALID,0,VALID,24.0448,VALID,68,VALID,0.449219,
2010-04-09, 03:31:04,VALID,1009.63,VALID,0,VALID,96.1913,VALID,0,VALID,24.0448,VALID,68,VALID,0.25,
2010-04-09, 03:32:04,VALID,1009.64,VALID,0,VALID,96.1989,VALID,0,VALID,24.0643,VALID,68,VALID,0.38125,
2010-04-09, 03:33:04,VALID,1009.64,VALID,0,VALID,96.2065,VALID,0,VALID,24.0448,VALID,68,VALID,0,
2010-04-09, 03:34:04,VALID,1009.64,VALID,0,VALID,96.2141,VALID,0,VALID,24.0448,VALID,68,VALID,0.00351562,
2010-04-09, 03:35:04,VALID,1009.66,VALID,0,VALID,96.2141,VALID,0,VALID,24.0856,VALID,68,VALID,0,
2010-04-09, 03:36:04,VALID,1009.68,VALID,0,VALID,96.2065,VALID,0,VALID,24.0448,VALID,68,VALID,0,
2010-04-09, 03:37:04,VALID,1009.67,VALID,0,VALID,96.2065,VALID,0,VALID,24.0448,VALID,68,VALID,0,
2010-04-09, 03:38:04,VALID,1009.67,VALID,0,VALID,96.237,VALID,0,VALID,24.0253,VALID,68,VALID,0,
2010-04-09, 03:39:04,VALID,1009.68,VALID,0,VALID,96.2446,VALID,0,VALID,24.0253,VALID,68,VALID,0,
2010-04-09, 03:40:04,VALID,1009.69,VALID,0,VALID,96.237,VALID,0,VALID,24.0076,VALID,68,VALID,0,
2010-04-09, 03:41:04,VALID,1009.7,VALID,0,VALID,96.2446,VALID,0,VALID,23.9863,VALID,68,VALID,0,
2010-04-09, 03:42:04,VALID,1009.72,VALID,0,VALID,96.2599,VALID,0,VALID,23.9668,VALID,68,VALID,0,
2010-04-09, 03:43:04,VALID,1009.73,VALID,0,VALID,96.2675,VALID,0,VALID,23.9668,VALID,68,VALID,0,
2010-04-09, 03:44:04,VALID,1009.75,VALID,0,VALID,96.2523,VALID,0,VALID,23.9473,VALID,68,VALID,0,
2010-04-09, 03:45:04,VALID,1009.73,VALID,0,VALID,96.2599,VALID,0,VALID,23.9455,VALID,68,VALID,0,
2010-04-09, 03:46:04,VALID,1009.72,VALID,0,VALID,96.2446,VALID,0,VALID,23.9455,VALID,68,VALID,0,
2010-04-09, 03:47:04,VALID,1009.73,VALID,0,VALID,96.2218,VALID,0,VALID,23.9455,VALID,68,VALID,0,
2010-04-09, 03:48:04,VALID,1009.73,VALID,0,VALID,96.2294,VALID,0.105969,VALID,23.926,VALID,126,VALID,0.252734,
2010-04-09, 03:49:04,VALID,1009.71,VALID,0,VALID,96.2141,VALID,0.105969,VALID,23.9455,VALID,126,VALID,0.173828,
2010-04-09, 03:50:04,VALID,1009.69,VALID,0,VALID,96.2294,VALID,0.105969,VALID,23.9668,VALID,126,VALID,0.361719,
2010-04-09, 03:51:04,VALID,1009.68,VALID,0,VALID,96.2294,VALID,0.105969,VALID,23.926,VALID,126,VALID,0.436328,
2010-04-09, 03:52:04,VALID,1009.7,VALID,0,VALID,96.2141,VALID,0.105969,VALID,23.965,VALID,126,VALID,0.317969,